{"data":{"norad_id":50498,"epoch":"2026-05-25T02:16:39.697824Z","epoch_age_seconds":67625,"freshness":"FRESH","line1":"1 50498U 21132AF  26145.09490391  .00000061  00000+0  12256-3 0  9993","line2":"2 50498  87.9168 340.0413 0002544  89.5338 270.6086 13.18687153218545","mean_motion":13.18687153,"eccentricity":0.0002544,"inclination_deg":87.9168,"raan_deg":340.0413,"arg_perigee_deg":89.5338,"mean_anomaly_deg":270.6086,"bstar":0.00012256,"rev_number":21854,"period_min":109.19951686221,"perigee_km":1187.8134479445,"apogee_km":1191.6639831085,"semimajor_km":7567.8757155265,"source":"CELESTRAK","updated_at":"2026-05-25T13:38:22.572515Z"}}